Find Kosmos-1057

NORAD ID: 11134 Int'l Des: 1978-109 Owner: GUKOSR Country: SU operational
LEOCIRCULAR

当前视图

正在加载3D地球...

关于 Kosmos-1057

正在加载描述...

即将过境

Passes for default location (London). Set your location on the main map for personalized predictions.

高度历史

Loading altitude history...

两行轨道根数

1 11134U 78109G 26150.89091505 -.00000017 00000-0 -14237-4 0 9997
2 11134 74.0167 312.1511 0021854 135.2895 297.1482 12.42130706153091
Epoch: May 30, 2026 • Age: 9 hours

当前状态

高度 1536.7 km
速度 7.09 km/s
星下点 -60.20°S, 61.62°W
发射日期 Dec 5, 1978
运行时间 47.4 years
类型 other

技术详情

分类 Payload
质量 60.00 kg
干质量 60.00 kg
总质量 60.00 kg
长度 0.80 m
直径 0.80 m
跨度 0.80 m
形状 Poly
制造商 NPOPM
平台类型 Strela-1 11F625
阶段状态 In Orbit
所有者/国家 GUKOSR/SU

Most Searched